Weather History for Barcelona / Aeropuerto, Spain

Change the Weather History Date:

Tuesday, May 14, 2013

  Actual Average Record
Temperature  
Mean Temperature 62 °F -  
Max Temperature 66 °F 71 °F - ()
Min Temperature 58 °F 59 °F - ()
Degree Days  
Heating Degree Days 3    
Growing Degree Days 12 (Base 50)    
Moisture  
Dew Point 58 °F    
Average Humidity 84    
Maximum Humidity 88    
Minimum Humidity 69    
Precipitation  
Precipitation 0.01 in 0.06 in - ()
Sea Level Pressure  
Sea Level Pressure 29.92 in    
Wind  
Wind Speed 5 mph ()    
Max Wind Speed 13 mph    
Max Gust Speed -    
Visibility 6.1 miles    
Events Rain    
T = Trace of Precipitation, MM = Missing Value Source: Averaged Metar Reports

Daily Weather History Graph

Daily Weather History Graph

Search for Another Location

Airport:

Trip Planner

Search our weather history database for the weather conditions in past years. The results will help you decide how hot, cold, wet, or windy it might be!

Date:

Astronomy

May. 14, 2013 Rise Set
Actual Time 6:34 AM CEST 9:02 PM CEST
Civil Twilight 6:02 AM CEST 9:34 PM CEST
Nautical Twilight 5:23 AM CEST 10:13 PM CEST
Astronomical Twilight 4:40 AM CEST 10:56 PM CEST
Moon 9:59 AM CEST (5/14) 12:00 AM CEST (5/14)
Length of Visible Light 15h 31m
Length of Day
14h 28m
Waxing Crescent, 17% of the Moon is Illuminated
May 14
Waxing Crescent
May 18
First Quarter
May 25
Full
May 31
Last Quarter
Jun 8
New

Hourly Weather History & Observations

Time (CEST) Temp. Dew Point Humidity Pressure Visibility Wind Dir Wind Speed Gust Speed Precip Events Conditions
12:00 AM 62.6 °F 55.4 °F 77% 30.04 in 6.2 mi West 3.5 mph - N/A   Partly Cloudy
12:30 AM 62.6 °F 57.2 °F 82% 30.06 in 6.2 mi SW 5.8 mph - N/A   Partly Cloudy
1:00 AM 60.8 °F 57.2 °F 88% 30.06 in 6.2 mi SW 6.9 mph - N/A   Partly Cloudy
1:30 AM 60.8 °F 55.4 °F 82% 30.06 in 6.2 mi West 4.6 mph - N/A   Partly Cloudy
2:00 AM 60 °F 53 °F 72% 30.06 in 11 mi NNW 4.6 mph - -   Scattered Clouds
2:00 AM 60.8 °F 55.4 °F 82% 30.04 in 6.2 mi NW 4.6 mph - N/A   Partly Cloudy
2:30 AM 59.0 °F 55.4 °F 88% 30.04 in 6.2 mi WNW 5.8 mph - N/A   Partly Cloudy
3:00 AM 60.8 °F 55.4 °F 82% 30.04 in 6.2 mi WNW 3.5 mph - N/A   Scattered Clouds
3:30 AM 60.8 °F 57.2 °F 88% 30.04 in 6.2 mi Calm Calm - N/A   Mostly Cloudy
4:00 AM 60.8 °F 55.4 °F 82% 30.01 in 6.2 mi NW 4.6 mph - N/A   Mostly Cloudy
4:30 AM 59.0 °F 55.4 °F 88% 30.01 in 6.2 mi NW 5.8 mph - N/A   Mostly Cloudy
5:00 AM 59.0 °F 55.4 °F 88% 30.01 in 5.6 mi NW 5.8 mph - N/A   Scattered Clouds
5:30 AM 59.0 °F 55.4 °F 88% 29.98 in 5.0 mi NW 6.9 mph - N/A   Partly Cloudy
6:00 AM 59.0 °F 55.4 °F 88% 29.98 in 5.0 mi NW 4.6 mph - N/A   Partly Cloudy
6:30 AM 59.0 °F 55.4 °F 88% 29.98 in 4.3 mi WNW 4.6 mph - N/A   Partly Cloudy
7:00 AM 59.0 °F 55.4 °F 88% 29.98 in 5.0 mi NW 5.8 mph - N/A   Scattered Clouds
7:30 AM 59.0 °F 55.4 °F 88% 29.95 in 4.3 mi NNW 4.6 mph - N/A   Partly Cloudy
8:00 AM 62 °F 54 °F 69% 29.99 in 4 mi NNW 3.5 mph - -   Mist
8:00 AM 60.8 °F 55.4 °F 82% 29.98 in 4.3 mi NW 4.6 mph - N/A   Partly Cloudy
8:30 AM 62.6 °F 57.2 °F 82% 29.98 in 5.0 mi WNW 3.5 mph - N/A   Partly Cloudy
9:00 AM 64.4 °F 59.0 °F 83% 29.95 in 6.2 mi WNW 3.5 mph - N/A   Partly Cloudy
9:30 AM 64.4 °F 59.0 °F 83% 29.98 in 6.2 mi SW 5.8 mph - N/A   Partly Cloudy
10:00 AM 66.2 °F 59.0 °F 78% 29.98 in 6.2 mi SSW 6.9 mph - N/A   Partly Cloudy
10:30 AM 64.4 °F 59.0 °F 83% 29.98 in 6.2 mi SSW 9.2 mph - N/A   Partly Cloudy
11:00 AM 64.4 °F 59.0 °F 83% 29.98 in 6.2 mi SSW 11.5 mph - N/A   Partly Cloudy
12:00 PM 64.4 °F 59.0 °F 83% 29.98 in 6.2 mi SW 12.7 mph - N/A   Partly Cloudy
12:30 PM 64.4 °F 59.0 °F 83% 29.95 in 6.2 mi SW 12.7 mph - N/A   Partly Cloudy
1:00 PM 64.4 °F 60.8 °F 88% 29.95 in 6.2 mi SSW 8.1 mph - N/A   Drizzle
1:30 PM 64.4 °F 60.8 °F 88% 29.92 in 6.2 mi SSW 4.6 mph - N/A Rain Rain
2:00 PM - - %  in 7 mi SW 5.8 mph - -   Overcast
2:00 PM 64.4 °F 60.8 °F 88% 29.92 in 6.2 mi SW 3.5 mph - N/A   Scattered Clouds
2:30 PM 64.4 °F 60.8 °F 88% 29.89 in 6.2 mi SSW 6.9 mph - N/A   Scattered Clouds
3:00 PM 64.4 °F 60.8 °F 88% 29.89 in 6.2 mi SSW 11.5 mph - N/A   Scattered Clouds
3:30 PM 64.4 °F 59.0 °F 83% 29.89 in 6.2 mi SSW 10.4 mph - N/A   Partly Cloudy
4:00 PM 64.4 °F 60.8 °F 88% 29.86 in 6.2 mi SSW 5.8 mph - N/A   Partly Cloudy
4:30 PM 64.4 °F 59.0 °F 83% 29.86 in 6.2 mi South 8.1 mph - N/A   Partly Cloudy
5:00 PM 64.4 °F 59.0 °F 83% 29.83 in 6.2 mi SSW 5.8 mph - N/A Rain Rain
5:30 PM 64.4 °F 59.0 °F 83% 29.83 in 6.2 mi South 5.8 mph - N/A   Scattered Clouds
6:00 PM 64.4 °F 57.2 °F 77% 29.83 in 6.2 mi SSW 5.8 mph - N/A Rain Rain
6:30 PM 64.4 °F 57.2 °F 77% 29.83 in 6.2 mi SSW 4.6 mph - N/A   Drizzle
7:00 PM 64.4 °F 59.0 °F 83% 29.80 in 6.2 mi SSE 4.6 mph - N/A   Scattered Clouds
7:30 PM 62.6 °F 59.0 °F 88% 29.80 in 6.2 mi SSE 5.8 mph - N/A   Scattered Clouds
8:00 PM 62 °F 57 °F 79% 29.82 in 8 mi SSW 5.8 mph - - Rain Light Rain
8:00 PM 62.6 °F 59.0 °F 88% 29.80 in 6.2 mi SSW 4.6 mph - N/A Rain Rain
9:00 PM 62.6 °F 59.0 °F 88% 29.77 in 6.2 mi WSW 5.8 mph - N/A   Partly Cloudy
9:30 PM 62.6 °F 59.0 °F 88% 29.77 in 6.2 mi SSW 3.5 mph - N/A   Partly Cloudy
10:00 PM 62.6 °F 59.0 °F 88% 29.74 in 6.2 mi SSE 3.5 mph - N/A   Partly Cloudy
10:30 PM 62.6 °F 59.0 °F 88% 29.74 in 6.2 mi SE 3.5 mph - N/A   Partly Cloudy
11:00 PM 62.6 °F 59.0 °F 88% 29.74 in 6.2 mi Variable 2.3 mph - N/A   Partly Cloudy
11:30 PM 62.6 °F 59.0 °F 88% 29.74 in 6.2 mi Calm Calm - N/A   Partly Cloudy